Content
SEND FEEDBACK

Daily
Averages
Monthly
Summary
Malaysia

ALOR SETAR, MALAYSIA


Home > Asia > Malaysia
Elevation: 13 feet     Latitude: 06 11N     Longitude: 100 24E

WEATHER
 
SELECT A DAY
Number of Records: 95,210;   Date Range: 6/24/00 - 12/20/14
 
SHARE

PRINT THIS DATA

[ ← Previous Day ]
WEATHER ALMANAC - MARCH 12, 2013
[ Next Day → ]
[ °C ]   °F
Weather ElementAverageHighLow
Temperature83.8 °F95 °F (3:00 pm)75.2 °F (4:00 am)
Dewpoint76.2 °F80.6 °F (4:00 pm)73.4 °F (2:00 am)
Humidity79.2 %94 % (4:00 am)53 % (3:00 pm)
Barometer29.83 in29.89 in (9:00 am)29.74 in (4:00 pm)
Wind Speed4.3 mph9.2 mph (4:00 pm)
Weather ElementAverage
Visibility6 mi
Wind DirectionSSE (146.5 °)

Weather ElementTotal
Precipitation---
Cooling Degree Days20.1 (Base 65)
Growing Degree Days35.1 (Base 50)
Averaged from 23 records on March 12, 2013
WEATHER CONDITIONS BREAKOUT
WIND DIRECTION BREAKOUT
WEATHER BY HOUR - MARCH 12, 2013
[ °C ]   °F
Local TimeTemperatureDewpointHumidityBarometerVisibilityWind DirectionWind SpeedGust SpeedPrecipitationEventsConditions
1:00 AM78.8 °F75.2 °F89 %29.86 in6.2 miNNE (20°)4.6 mphMostly Cloudy
2:00 AM77.0 °F73.4 °F89 %29.86 in6.2 miNorth (10°)3.5 mphMostly Cloudy
3:00 AM77.0 °F73.4 °F89 %29.83 in6.2 miNorth (360°)3.5 mphMostly Cloudy
4:00 AM75.2 °F73.4 °F94 %29.83 in6.2 miNorth (10°)3.5 mphMostly Cloudy
5:00 AM75.2 °F73.4 °F94 %29.80 in6.2 miNorth (10°)3.5 mphMostly Cloudy
6:00 AM75.2 °F73.4 °F94 %29.80 in6.2 miNorth (10°)2.3 mphMostly Cloudy
7:00 AM75.2 °F73.4 °F94 %29.83 in6.2 miNorth (10°)2.3 mphMostly Cloudy
8:00 AM75.2 °F73.4 °F94 %29.86 in4.3 miNNE (30°)4.6 mphMostly Cloudy
9:00 AM77.0 °F73.4 °F89 %29.89 in6.2 miNorth (350°)2.3 mphMostly Cloudy
10:00 AM82.4 °F75.2 °F79 %29.89 in6.2 miENE (70°)4.6 mphMostly Cloudy
11:00 AM86.0 °F77.0 °F74 %29.89 in6.2 miENE (60°)5.8 mphMostly Cloudy
12:00 PM87.8 °F77.0 °F70 %29.86 in6.2 miNorth (360°)3.5 mphMostly Cloudy
1:00 PM89.6 °F78.8 °F70 %29.86 in6.2 miNNE (20°)2.3 mphMostly Cloudy
2:00 PM93.2 °F78.8 °F63 %29.83 in6.2 miNorth (360°)3.5 mphMostly Cloudy
3:00 PM95.0 °F75.2 °F53 %29.77 in6.2 miEast (80°)3.5 mphMostly Cloudy
4:00 PM95.0 °F80.6 °F63 %29.74 in6.2 miWSW (240°)9.2 mphMostly Cloudy
5:00 PM95.0 °F80.6 °F63 %29.74 in6.2 miWest (260°)8.1 mphMostly Cloudy
6:00 PM93.2 °F78.8 °F63 %29.74 in6.2 miWSW (240°)9.2 mphMostly Cloudy
7:00 PM89.6 °F77.0 °F66 %29.77 in5.0 miWSW (240°)6.9 mphMostly Cloudy
8:00 PM86.0 °F78.8 °F79 %29.80 in5.0 miWest (280°)4.6 mphMostly Cloudy
9:00 PM84.2 °F78.8 °F84 %29.83 in6.2 miCalmMostly Cloudy
10:00 PM82.4 °F77.0 °F84 %29.86 in6.2 miNNW (330°)3.5 mphMostly Cloudy
11:00 PM82.4 °F77.0 °F84 %29.89 in6.2 miNNE (20°)3.5 mphMostly Cloudy
Hourly data recorded from WMKA, located miles away from Alor Setar, Malaysia







STORIES FROM OUR PARTNERS